Regional Weather Roundup
Issued by NWS Charleston, SC

Current Version | Previous Version | Graphics & Text | Print | Product List | Glossary On
Versions: 1 2 3 4 5 6 7 8 9 10 11 12 13 14 15 16 17 18 19 20 21 22 23 24 25 26 27 28 29 30 31 32 33 34 35 36 37 38 39 40 41 42 43 44 45 46 47 48 49 50
000
ASUS42 KCHS 232112
RWRCHS

REGIONAL WEATHER ROUNDUP
NATIONAL WEATHER SERVICE CHARLESTON SC
500 PM EDT THU MAR 23 2017

NOTE: "FAIR" INDICATES FEW OR NO CLOUDS BELOW 12,000 FEET WITH NO
SIGNIFICANT WEATHER AND/OR OBSTRUCTIONS TO VISIBILITY.

NOT ALL STATIONS ARE QUALITY CONTROLLED. USE DATA WITH CAUTION...
ESPECIALLY DEWPOINT OBSERVATIONS.

SCZ027-030-031-034>040-042>050-232200-
...SOUTHEAST SOUTH CAROLINA...

CITY           SKY/WX    TMP DP  RH WIND       PRES   REMARKS
N CHARLESTON   SUNNY     64  33  31 E9        30.46F
WATERFRONT PRK   N/A     58  47  66 E20       30.47F
JOHNS ISLAND   FAIR      59  45  58 E17       30.47F
PINOPOLIS        N/A     61  37  41 E7        30.38F
MONCKS CORNER  CLOUDY    61  30  31 E8        30.48R HAZE
SUMMERVILLE    FAIR      63  36  36 E7        30.47S
BEAUFORT MCAS  SUNNY     65  42  43 E13G21    30.45S
BEAUFORT ARPT  FAIR      63  46  55 E14G20    30.46R
HILTON HEAD IS SUNNY     59  48  67 NE15G31   30.47R
WALTERBORO     CLEAR     64  34  32 E10       30.45S
ALLENDALE      FAIR      66  36  32 VRB5      30.43S

...SOUTHERN MIDLANDS AND PEE DEE...

CITY           SKY/WX    TMP DP  RH WIND       PRES   REMARKS
GEORGETOWN     FAIR      55  36  47 E9        30.51F
KINGSTREE      FAIR      61  19  20 CALM      30.48S
ORANGEBURG     SUNNY     62  25  24 SE12      30.46F
BARNWELL       FAIR      66  34  30 SE12      30.44S
AIKEN          FAIR      63  30  29 E7        30.47S
MANNING        FAIR      63  28  27 S6        30.47F
COLUMBIA       MOSUNNY   64  26  23 E5        30.46F
SUMTER         SUNNY     62  23  22 E8        30.46F
FLORENCE       SUNNY     60  24  25 NE6       30.50F
MYRTLE BEACH   SUNNY     54  34  47 E16       30.53S
N MYRTLE BEACH SUNNY     54  30  40 SE10G21   30.52S

$$

GAZ063-065-086>088-099>101-113>116-118-119-134>141-150-232200-
...SOUTHEAST GEORGIA...

CITY           SKY/WX    TMP DP  RH WIND       PRES   REMARKS
SAVANNAH ARPT  MOSUNNY   66  39  37 E14G23    30.44R
HUNTER AAF     SUNNY     64  50  59 E10       30.42S
FORT STEWART   CLOUDY    66  43  42 E15G21    30.41R
STATESBORO     MOSUNNY   70  46  41 E9        30.41F
SYLVANIA       CLEAR    N/A N/A N/A E7        30.42F
CLAXTON        CLOUDY    67  48  49 NE10      30.41F

...CSRA...CENTRAL AND FAR SOUTHEAST GEORGIA...

CITY           SKY/WX    TMP DP  RH WIND       PRES   REMARKS
THOMSON        PTSUNNY   65  33  30 S9        30.47S
AUGUSTA-BUSH   SUNNY     68  34  28 SE8       30.41F
AUGUSTA-DANIEL SUNNY     66  30  26 SE8       30.43F
SWAINSBORO     MOCLDY    68  45  42 E10       30.41S
VIDALIA        CLOUDY    68  48  49 SE8       30.40S
EASTMAN        MOCLDY    70  34  26 E10G18    30.41F
HAZLEHURST     MOCLDY    67  51  55 E10G17    30.38S
ALMA           CLOUDY    66  50  56 SE13G25   30.38F
WAYCROSS       MOSUNNY   71  55  56 E16G23    30.38S
JESUP          MOCLDY    66  46  48 E14G20    30.41S
BAXLEY         CLOUDY    66  54  63 SE12      30.39F
BRUNSWICK      CLOUDY    64  55  72 NE22      30.42S
SAINT SIMONS   CLOUDY    64  52  64 NE20G30   30.40S

$$

SCZ027-028-034-036>038-045-046-048>050-GAZ119-141-232200-
...LAKE AND SUPPLEMENTAL COASTAL OBSERVATIONS...

STATION/POSITION TIME  TEMP    WIND        PRES    WAVE   SWELL
                       AIR SEA DIR/SP/G            HT/PER HT/PER/DIR
                 (UTC) (F)     (DEG/KT/KT) (MB)    (FT/S) (FT/S/D)
WINYAH BAY       1945   52      70/ 15     1033.0
LAKE MURRAY      2020   60     100/  4/  8 1030.8
ACE BASIN NERRS  NOT AVBL
FORT PULASKI     2048   57 61   60/ 18/ 22 1031.3R
SAPELO ISLAND    2000   62      60/ 18     1030.0

$$

ANZ835-935-AMZ111-154-330-350-352-354-370-450-454-472-232200-
...C-MAN AND BUOY OBSERVATIONS...

STATION/POSITION TIME  TEMP    WIND        PRES    WAVE   SWELL
                       AIR SEA DIR/SP/G            HT/PER HT/PER/DIR
                 (UTC) (F)     (DEG/KT/KT) (MB)    (FT/S) (FT/S/D)
BUOY 41004       1950   59 71   30/ 23/ 29 1030.1    7/ 7   2/100/10
BUOY 41008       1950   61 62   50/ 23/ 27 1028.8    7/ 7   2/100/11
FOLLY BEACH CMAN 2000   55      50/ 20/ 25 1032.8F
CAPERS NEARSHORE 2008   54      70/ 21/ 27 1032.1S
FRIPP NEARSHORE  2008   56 59   60/ 21/ 27 1031.4F


STATION/POSITION TIME  TEMP    WIND        PRES    WAVE   SWELL
                       AIR SEA DIR/SP/G            HT/PER HT/PER/DIR
                 (UTC) (F)     (DEG/KT/KT) (MB)    (FT/S) (FT/S/D)
5E ST. MARYS GA  2030      63                N/A     7/ 7   2/ 80/11
FRYING PAN BUOY  2050   54 65   30/ 19/ 25 1033.3R   7/ 6   3/ 90/10
BUOY 41025       2050   46 74   20/ 16/ 21 1034.8R   9/10   8/ 50/10
CAPE LOOKOUT NC  2000   45      30/ 15/ 18 1034.5F
BUOY 41002       1950   60 72   40/ 19/ 23 1029.7    7/10   7/ 40/10
BUOY 41010       NOT AVBL
ST AUGUSTINE FL  2100   66 65   80/ 14/ 16 1028.7R


$$




USA.gov is the U.S. government's official web portal to all federal, state and local government web resources and services.